User: anonymous   Login
Location: Unspecified
(47.9110°N, 14.3980°E)
Time: 01:05:24
(UTC+00:00)
Language:

Cosmos 2333 Rocket - Orbit

View from above orbital plane
View from above orbital plane
View from above satellite
View from above satellite

Ground track
Ground track

The orbit data is extracted from the following two-line orbital elements,

1 24298U 96051B   20292.66622236 -.00000095  00000-0 -25204-4 0  9997
2 24298  70.8444  10.7892 0016656 179.9802 180.1322 14.12492745244018
Epoch (UTC): 18 October 2020 15:59:21
Eccentricity: 0.0016656
inclination: 70.8444°
perigee height: 839 km
apogee height: 863 km
right ascension of ascending node: 10.7892°
argument of perigee: 179.9802°
revolutions per day: 14.12492745
mean anomaly at epoch: 180.1322°
orbit number at epoch: 24401

The dashed part of the orbit path shows where the satellite is in the earth's shadow,  

DLR